Home > Weather > Steinfurt > Past weeks

Flag for Germany Past Weather in Steinfurt, North Rhine-Westphalia, Germany — Yesterday and Last 2 Weeks

Now
66 °F

Mild.


Feels Like: 66 °F
Forecast: 59 / 70 °F
Wind: 7 mph from Southwest

Location: Rheine-Bentlage

Current Time: Jun 30, 2016 at 5:54:08 PM

Latest Report: Jun 30, 2016 at 5:20 PM


Visibility: N/A

Pressure: 29.89 "Hg

Humidity: 73%

Dew Point: 57 °F

Location of SteinfurtLocation

Past Weather in Steinfurt — Graph

°F

Steinfurt Temperature Yesterday

Maximum temperature yesterday: 68 °F (at 4:20 PM)
Minimum temperature yesterday: 57 °F (at 4:20 AM)
Average temperature yesterday: 61 °F

High & Low Weather Summary for the Past Weeks

 TemperatureHumidityPressure
High90 °F (Jun 23, 6:20 PM)100% (Jun 16, 12:20 AM)30.24 "Hg (Jun 16, 12:20 AM)
Low48 °F (Jun 28, 4:20 AM)50% (Jun 16, 6:20 PM)29.50 "Hg (Jun 15, 4:20 PM)
Average62 °F82%29.96 "Hg
* Reported Jun 15 4:20 PM — Jun 30 4:20 PM, Steinfurt, Weather by CustomWeather, © 2016

Note: Actual official high and low records may vary slightly from our data, if they occured in-between our weather recording intervals... More about our weather records

Advertising

Steinfurt Weather History for the Previous 24 Hours

Scroll right to see more
 ConditionsComfort  
Time TempWeatherWind HumidityBarometerVisibility
4:20 PM
Thu, Jun 30
66 °FMild.9 mph73%29.89 "HgN/A
3:20 PM64 °FPartly sunny.9 mph73%29.89 "HgN/A
2:20 PM66 °FBroken clouds.9 mph73%29.89 "HgN/A
1:20 PM64 °FBroken clouds.9 mph73%29.89 "HgN/A
12:20 PM63 °FBroken clouds.8 mph83%29.86 "HgN/A
11:20 AM63 °FBroken clouds.9 mph83%29.86 "HgN/A
10:20 AM63 °FBroken clouds.12 mph83%29.86 "HgN/A
9:20 AM61 °FBroken clouds.7 mph83%29.86 "HgN/A
8:20 AM61 °FBroken clouds.7 mph83%29.83 "HgN/A
7:20 AM59 °FBroken clouds.6 mph82%29.83 "HgN/A
6:20 AM59 °FBroken clouds.2 mph82%29.83 "HgN/A
5:20 AM57 °FCool.2 mph88%29.83 "HgN/A
4:20 AM57 °FCool.5 mph88%29.83 "HgN/A
3:20 AM59 °FCool.5 mph82%29.83 "HgN/A
2:20 AM59 °FCool.1 mph82%29.83 "HgN/A
1:20 AM59 °FCool.2 mph88%29.83 "HgN/A
12:20 AM59 °FCool.2 mph82%29.86 "HgN/A
11:20 PM
Wed, Jun 29
61 °FCool.2 mph72%29.86 "HgN/A
10:20 PM64 °FMild.7 mph60%29.86 "HgN/A
9:20 PM64 °FMild.5 mph64%29.86 "HgN/A
8:20 PM64 °FMild.3 mph60%29.86 "HgN/A
7:20 PM66 °FMild.7 mph52%29.86 "HgN/A
6:20 PM66 °FMild.7 mph56%29.86 "HgN/A
5:20 PM68 °FMild.13 mph53%29.86 "HgN/A
Weather by CustomWeather, © 2016

See weather overviewHow to use our weather pages